#timestamp,LO_Frequency,Hit,StdDev 
1546898415.4,286047000.0,N
1546898435.3,286047001.7,N
1546898455.1,286047003.4,N
1546898475.9,286047002.0,N
1546898495.7,286047004.2,Y
1546898515.5,286047000.9,P
1546898535.4,286047000.6,N
1546898555.2,286047000.8,P
1546898575.0,286046999.7,N
1546898575.9,286046999.7,N
1546898595.8,286047000.4,N
1546898645.7,286047000.3,E
1546898655.6,286047001.2,N
1546898675.4,286046998.8,P
1546898695.2,286046998.2,N
1546898715.1,286046998.8,N
1546898716.0,286046998.8,N
1546898735.8,286046998.5,N
1546898755.7,286047001.0,N
1546898775.5,286047001.1,N
1546898795.3,286047000.7,N
1546898815.2,286047001.0,N
1546898835.9,286047001.3,N
1546898855.7,286047001.9,N
1546898875.6,286047002.1,N
1546898895.4,286047000.2,N
1546898915.2,286047000.3,N
1546898935.1,286047000.7,N
1546898936.0,286047000.7,N
1546898955.8,286047002.1,N
1546898975.7,286047002.5,N
1546898995.5,286047000.4,N
1546899015.3,286047000.9,N
1546899035.2,286047000.7,N
1546899055.0,286047000.9,N
1546899055.9,286047000.9,N
1546899075.7,286047001.8,N
1546899095.6,286047003.9,Y
1546899115.4,286047001.8,P
1546899135.3,286046999.8,N
1546899155.1,286047002.7,P
1546899156.0,286047002.7,N
1546899175.8,286047011.9,Y
1546899195.7,286047001.9,P
1546899215.5,286047002.4,P
1546899235.4,286047000.9,N
1546899255.2,286047002.6,Y
1546899275.0,286047000.6,P
1546899275.9,286047000.6,N
1546899295.8,286046996.5,P
1546899315.6,286046998.3,N
1546899335.4,286046998.5,N
1546899355.3,286046999.3,N
1546899375.1,286046998.5,N
1546899395.9,286046998.8,N
1546899415.7,286046996.7,N
1546899435.5,286046996.8,N
1546899455.4,286046998.7,N
1546899475.2,286047001.2,N
1546899495.0,286046999.5,N
1546899495.9,286046999.5,N
1546899515.8,286046996.5,N
1546899535.6,286047000.6,N
1546899555.4,286046999.3,N
1546899575.3,286046999.5,N
1546899595.1,286046999.2,N
1546899615.9,286047000.7,N
1546899635.7,286047000.6,N
1546899655.5,286046999.7,N
1546899675.4,286047000.2,N
1546899695.2,286047002.8,N
1546899715.0,286047000.0,N
1546899716.0,286047000.0,N
1546899735.8,286047002.1,N
1546899755.6,286047005.4,Y
1546899775.5,286047002.9,P
1546899795.3,286047005.1,N
1546899815.1,286047004.8,N
1546899835.9,286047004.4,N
1546899855.7,286047001.4,N
1546899875.5,286047002.4,N
1546899895.4,286046999.8,N
1546899915.2,286047001.5,N
1546899935.1,286047001.5,N
1546899936.0,286047001.5,N
1546899955.8,286047002.0,N
1546899975.6,286047001.4,N
1546899995.5,286047002.8,N
1546900015.3,286046998.5,N
1546900035.1,286046998.2,N
1546900055.9,286046999.4,N
1546900075.7,286046996.5,N
1546900095.6,286046998.6,N
1546900115.4,286047001.8,N
1546900135.2,286047002.3,N
1546900155.1,286047000.2,N
1546900156.0,286047000.2,N
1546900175.8,286047001.5,N
1546900195.6,286047002.4,N
1546900215.5,286047000.9,N
1546900235.3,286046998.6,N
1546900255.2,286046999.0,N
1546900275.9,286047000.6,N
1546900295.7,286047001.2,N
1546900315.6,286047004.0,N
1546900335.4,286047002.1,N
1546900355.2,286047003.7,N
1546900375.1,286047003.2,N
1546900376.0,286047003.2,N
1546900395.8,286047001.3,N
1546900415.7,286047001.6,N
1546900435.5,286046999.8,N
1546900455.3,286047000.4,N
1546900475.2,286047001.7,N
1546900495.0,286047001.5,N
1546900495.9,286047001.5,N
1546900515.8,286047002.6,N
1546900535.6,286047002.1,N
1546900555.4,286047002.6,N
1546900575.3,286047002.4,N
1546900595.1,286047003.1,N
1546900615.8,286047003.2,N
1546900635.7,286047003.7,N
1546900655.5,286047002.6,N
1546900675.3,286047002.0,N
1546900695.2,286047001.8,N
1546900715.0,286047002.8,N
1546900715.9,286047002.8,N
1546900735.8,286047003.1,N
1546900755.6,286047001.8,N
1546900775.4,286047002.3,N
1546900795.3,286047000.4,N
1546900815.1,286047002.5,N
1546900835.8,286047001.6,N
1546900855.7,286047002.1,N
1546900875.5,286047001.7,N
1546900895.4,286047001.5,N
1546900915.2,286046999.8,N
1546900935.0,286047001.8,N
1546900935.9,286047001.8,N
1546900955.8,286047002.1,N
1546900975.6,286047002.8,N
1546900995.4,286047000.4,N
1546901015.3,286047001.6,N
1546901035.1,286047001.9,N
1546901055.9,286047005.7,Y
1546901075.7,286047002.0,P
1546901095.5,286047002.0,P
1546901115.4,286047001.2,P
1546901135.2,286046996.5,Y
1546901155.1,286046997.8,P
1546901156.0,286046997.8,N
1546901175.8,286046997.9,N
1546901195.6,286046997.8,N
1546901215.5,286046997.6,N
1546901265.3,286046997.0,E
1546901275.3,286046997.0,N
1546901295.1,286047001.2,P
1546901296.0,286047001.2,N
1546901315.8,286047000.6,N
1546901335.7,286047000.4,N
1546901355.5,286047000.3,N
1546901375.4,286047000.0,N
1546901395.2,286047001.0,N
1546901415.0,286047001.0,N
1546901415.9,286047001.0,N
1546901435.8,286046999.8,N
1546901455.6,286047001.8,N
1546901475.4,286047002.5,N
1546901495.3,286047000.2,N
1546901515.1,286047000.0,N
1546901535.9,286047000.4,N
1546901555.7,286047000.5,N
1546901575.5,286047003.9,Y
1546901595.4,286047003.5,P
1546901615.2,286047003.3,N
1546901635.1,286047003.8,N
1546901636.0,286047003.8,N
1546901655.8,286047003.7,N
1546901675.6,286047004.4,Y
1546901695.5,286047001.1,P
1546901715.3,286046998.7,N
1546901735.2,286047000.5,N
1546901755.9,286046998.3,N
1546901775.7,286046998.3,N
1546901795.6,286046998.3,N
1546901815.4,286046998.7,N
1546901835.2,286047001.0,N
1546901855.1,286046998.6,N
1546901856.0,286046998.6,N
1546901875.8,286046997.9,N
1546901895.7,286046997.3,N
1546901915.5,286046997.4,N
1546901935.3,286046999.2,N
1546901955.2,286046998.7,N
1546901975.0,286046998.2,N
1546901975.9,286046998.2,N
1546901995.7,286047000.6,N
